Location: Brachbach
(49.1847°N, 9.7240°E)
Time: 05:47:50
(UTC+00:00)

PCSat - Pass Details

Date: 15 March 2026
Orbit: 780 x 790 km, 67.1° (Epoch: 13 April)

Event Time Altitude Azimuth Distance (km) Brightness Sun altitude
Exits shadow 02:11:45 - 327° (NNW) 2,553 12.3 -31.7°
Reaches altitude 10° 02:13:01 10° 339° (NNW) 2,364 12.2 -31.6°
Maximum altitude 02:14:47 11° 359° (N) 2,260 12.3 -31.4°
Drops below altitude 10° 02:16:34 10° 18° (NNE) 2,365 12.7 -31.1°
Sets 02:20:57 0° 51° (NE) 3,294 14.0 -30.6°
